Time,TemperatureF,DewpointF,PressureIn,WindDirection,WindDirectionDegrees,WindSpeedMPH,WindSpeedGustMPH,Humidity,HourlyPrecipIn,Conditions,Clouds,dailyrainin,SoftwareType,DateUTC
2013-05-12 00:03:00,-999.0,-99.9,29.96,WNW,290,2.0,4.0,84,0.00,,,0.05,,2013-05-12 04:03:00,
2013-05-12 00:12:00,41.0,37.0,29.96,WNW,290,2.0,4.0,84,0.00,,,0.05,,2013-05-12 04:12:00,
2013-05-12 00:22:00,41.0,36.0,29.96,WNW,285,3.0,6.0,83,0.00,,,0.05,,2013-05-12 04:22:00,
2013-05-12 00:33:00,41.0,36.0,29.96,WNW,282,2.0,7.0,82,0.00,,,0.05,,2013-05-12 04:33:00,
2013-05-12 00:43:00,41.0,36.0,29.96,WNW,282,2.0,7.0,82,0.00,,,0.05,,2013-05-12 04:43:00,
2013-05-12 00:52:00,41.0,36.0,29.96,WNW,289,1.0,4.0,83,0.00,,,0.05,,2013-05-12 04:52:00,
2013-05-12 01:02:00,41.0,36.0,29.96,WNW,290,0.0,3.0,82,0.00,,,0.05,,2013-05-12 05:02:00,
2013-05-12 01:12:00,41.0,36.0,29.96,WNW,290,0.0,3.0,82,0.00,,,0.05,,2013-05-12 05:12:00,
2013-05-12 01:22:00,41.0,36.0,29.97,WNW,290,0.0,5.0,82,0.00,,,0.05,,2013-05-12 05:22:00,
2013-05-12 01:32:00,40.0,35.0,29.97,WNW,290,0.0,2.0,82,0.00,,,0.05,,2013-05-12 05:32:00,
2013-05-12 01:42:00,40.0,35.0,29.97,WNW,290,0.0,2.0,82,0.00,,,0.05,,2013-05-12 05:42:00,
2013-05-12 01:51:00,40.0,35.0,29.97,WNW,290,0.0,3.0,83,0.00,,,0.05,,2013-05-12 05:51:00,
2013-05-12 02:02:00,40.0,35.0,29.97,WNW,291,1.0,4.0,82,0.00,,,0.05,,2013-05-12 06:02:00,
2013-05-12 02:11:00,40.0,35.0,29.97,WNW,291,1.0,4.0,82,0.00,,,0.05,,2013-05-12 06:11:00,
2013-05-12 02:21:00,40.0,35.0,29.97,WNW,291,0.0,3.0,83,0.00,,,0.05,,2013-05-12 06:21:00,
2013-05-12 02:32:00,40.0,35.0,29.97,West,269,0.0,6.0,83,0.00,,,0.05,,2013-05-12 06:32:00,
2013-05-12 02:42:00,40.0,35.0,29.97,West,269,0.0,6.0,83,0.00,,,0.05,,2013-05-12 06:42:00,
2013-05-12 02:52:00,40.0,35.0,29.97,WSW,250,0.0,3.0,83,0.00,,,0.05,,2013-05-12 06:52:00,
2013-05-12 03:01:00,40.0,36.0,29.97,West,259,0.0,4.0,84,0.00,,,0.05,,2013-05-12 07:01:00,
2013-05-12 03:11:00,40.0,36.0,29.97,West,259,0.0,4.0,84,0.00,,,0.05,,2013-05-12 07:11:00,
2013-05-12 03:22:00,40.0,36.0,29.97,West,271,0.0,4.0,84,0.00,,,0.05,,2013-05-12 07:22:00,
2013-05-12 03:32:00,39.0,35.0,29.96,WNW,292,0.0,5.0,84,0.00,,,0.05,,2013-05-12 07:32:00,
2013-05-12 03:42:00,39.0,35.0,29.96,WNW,292,0.0,5.0,84,0.00,,,0.05,,2013-05-12 07:42:00,
2013-05-12 03:52:00,39.0,35.0,29.96,WSW,251,0.0,7.0,85,0.00,,,0.05,,2013-05-12 07:52:00,
2013-05-12 04:02:00,39.0,35.0,29.96,West,264,0.0,4.0,85,0.00,,,0.05,,2013-05-12 08:02:00,
2013-05-12 04:11:00,39.0,35.0,29.96,West,264,0.0,4.0,85,0.00,,,0.05,,2013-05-12 08:11:00,
2013-05-12 04:21:00,39.0,35.0,29.96,West,278,1.0,5.0,86,0.00,,,0.05,,2013-05-12 08:21:00,
2013-05-12 04:32:00,39.0,35.0,29.96,NW,304,1.0,7.0,86,0.00,,,0.05,,2013-05-12 08:32:00,
2013-05-12 04:42:00,39.0,35.0,29.96,NW,304,1.0,7.0,86,0.00,,,0.05,,2013-05-12 08:42:00,
2013-05-12 04:53:00,39.0,35.0,29.96,WSW,254,0.0,5.0,86,0.00,,,0.05,,2013-05-12 08:53:00,
2013-05-12 05:01:00,39.0,35.0,29.96,WNW,292,1.0,6.0,86,0.00,,,0.05,,2013-05-12 09:01:00,
2013-05-12 05:11:00,39.0,35.0,29.96,WNW,292,1.0,6.0,86,0.00,,,0.05,,2013-05-12 09:11:00,
2013-05-12 05:21:00,39.0,35.0,29.96,West,281,1.0,7.0,86,0.00,,,0.05,,2013-05-12 09:21:00,
2013-05-12 05:33:00,38.0,34.0,29.96,WNW,286,1.0,6.0,86,0.00,,,0.05,,2013-05-12 09:33:00,
2013-05-12 05:43:00,38.0,34.0,29.96,WNW,286,1.0,6.0,86,0.00,,,0.05,,2013-05-12 09:43:00,
2013-05-12 05:52:00,38.0,34.0,29.96,WNW,289,3.0,7.0,86,0.00,,,0.05,,2013-05-12 09:52:00,
2013-05-12 06:03:00,38.0,34.0,29.97,WNW,299,2.0,7.0,86,0.00,,,0.05,,2013-05-12 10:03:00,
2013-05-12 06:12:00,38.0,34.0,29.97,WNW,299,2.0,7.0,86,0.00,,,0.05,,2013-05-12 10:12:00,
2013-05-12 06:23:00,38.0,34.0,29.97,WNW,282,2.0,7.0,85,0.00,,,0.05,,2013-05-12 10:23:00,
2013-05-12 06:33:00,38.0,34.0,29.97,West,279,1.0,6.0,85,0.00,,,0.05,,2013-05-12 10:33:00,
2013-05-12 06:42:00,38.0,34.0,29.97,West,279,1.0,6.0,85,0.00,,,0.05,,2013-05-12 10:42:00,
2013-05-12 06:52:00,38.0,34.0,29.97,West,279,2.0,7.0,84,0.00,,,0.05,,2013-05-12 10:52:00,
2013-05-12 07:02:00,38.0,34.0,29.98,West,279,3.0,6.0,84,0.00,,,0.05,,2013-05-12 11:02:00,
2013-05-12 07:12:00,38.0,34.0,29.98,West,279,3.0,6.0,84,0.00,,,0.05,,2013-05-12 11:12:00,
2013-05-12 07:22:00,38.0,34.0,29.98,West,278,4.0,9.0,85,0.00,,,0.05,,2013-05-12 11:22:00,
2013-05-12 07:32:00,38.0,34.0,29.98,WNW,302,4.0,8.0,85,0.00,,,0.05,,2013-05-12 11:32:00,
2013-05-12 07:42:00,38.0,34.0,29.98,WNW,302,4.0,8.0,85,0.00,,,0.05,,2013-05-12 11:42:00,
2013-05-12 07:52:00,39.0,35.0,29.99,WNW,288,2.0,7.0,85,0.00,,,0.05,,2013-05-12 11:52:00,
2013-05-12 08:02:00,39.0,35.0,29.99,WNW,290,3.0,6.0,84,0.00,,,0.05,,2013-05-12 12:02:00,
2013-05-12 08:11:00,39.0,35.0,29.99,WNW,290,3.0,6.0,84,0.00,,,0.05,,2013-05-12 12:11:00,
2013-05-12 08:22:00,40.0,35.0,29.99,WNW,290,5.0,8.0,83,0.00,,,0.05,,2013-05-12 12:22:00,
2013-05-12 08:32:00,41.0,35.0,29.99,WNW,290,8.0,13.0,80,0.00,,,0.05,,2013-05-12 12:32:00,
2013-05-12 08:42:00,41.0,35.0,29.99,WNW,290,8.0,13.0,80,0.00,,,0.05,,2013-05-12 12:42:00,
2013-05-12 08:51:00,42.0,35.0,29.99,West,279,10.0,15.0,76,0.00,,,0.05,,2013-05-12 12:51:00,
2013-05-12 09:02:00,43.0,36.0,30.00,WNW,291,9.0,18.0,76,0.00,,,0.05,,2013-05-12 13:02:00,
2013-05-12 09:11:00,43.0,36.0,30.00,WNW,291,9.0,18.0,76,0.00,,,0.05,,2013-05-12 13:11:00,
2013-05-12 09:21:00,43.0,35.0,30.00,WNW,299,9.0,16.0,73,0.00,,,0.05,,2013-05-12 13:21:00,
2013-05-12 09:32:00,43.0,34.0,30.01,West,261,10.0,17.0,71,0.00,,,0.05,,2013-05-12 13:32:00,
2013-05-12 09:42:00,43.0,34.0,30.01,West,261,10.0,17.0,71,0.00,,,0.05,,2013-05-12 13:42:00,
2013-05-12 09:52:00,44.0,34.0,30.01,WNW,290,13.0,21.0,67,0.00,,,0.05,,2013-05-12 13:52:00,
2013-05-12 10:01:00,44.0,34.0,30.01,WNW,286,10.0,18.0,69,0.00,,,0.05,,2013-05-12 14:01:00,
2013-05-12 10:11:00,44.0,34.0,30.01,WNW,286,10.0,18.0,69,0.00,,,0.05,,2013-05-12 14:11:00,
2013-05-12 10:21:00,44.0,34.0,30.01,WNW,286,13.0,20.0,67,0.00,,,0.05,,2013-05-12 14:21:00,
2013-05-12 10:32:00,44.0,33.0,30.01,NW,304,11.0,19.0,64,0.00,,,0.05,,2013-05-12 14:32:00,
2013-05-12 10:42:00,45.0,33.0,30.01,WNW,300,9.0,18.0,63,0.00,,,0.05,,2013-05-12 14:42:00,
2013-05-12 10:52:00,45.0,33.0,30.01,WNW,300,9.0,18.0,63,0.00,,,0.05,,2013-05-12 14:52:00,
2013-05-12 11:01:00,46.0,35.0,30.02,NW,304,9.0,17.0,65,0.00,,,0.05,,2013-05-12 15:01:00,
2013-05-12 11:11:00,46.0,35.0,30.02,NW,304,9.0,17.0,65,0.00,,,0.05,,2013-05-12 15:11:00,
2013-05-12 11:21:00,46.0,34.0,30.03,West,278,10.0,17.0,63,0.00,,,0.05,,2013-05-12 15:21:00,
2013-05-12 11:34:00,47.0,33.0,30.03,WNW,286,10.0,19.0,58,0.00,,,0.05,,2013-05-12 15:34:00,
2013-05-12 11:42:00,47.0,33.0,30.03,WNW,286,10.0,19.0,58,0.00,,,0.05,,2013-05-12 15:42:00,
2013-05-12 11:53:00,47.0,32.0,30.03,West,278,10.0,17.0,56,0.00,,,0.05,,2013-05-12 15:53:00,
2013-05-12 12:02:00,46.0,33.0,30.03,NW,306,8.0,15.0,61,0.00,,,0.05,,2013-05-12 16:02:00,
2013-05-12 12:13:00,46.0,33.0,30.03,NW,306,8.0,15.0,61,0.00,,,0.05,,2013-05-12 16:13:00,
2013-05-12 12:23:00,46.0,33.0,30.04,WNW,302,10.0,17.0,61,0.00,,,0.05,,2013-05-12 16:23:00,
2013-05-12 12:33:00,47.0,33.0,30.04,WNW,288,10.0,19.0,58,0.00,,,0.05,,2013-05-12 16:33:00,
2013-05-12 12:42:00,47.0,33.0,30.04,WNW,288,10.0,19.0,58,0.00,,,0.05,,2013-05-12 16:42:00,
2013-05-12 12:53:00,48.0,33.0,30.05,WNW,297,9.0,18.0,56,0.00,,,0.05,,2013-05-12 16:53:00,
2013-05-12 13:02:00,48.0,34.0,30.05,WNW,286,10.0,18.0,57,0.00,,,0.05,,2013-05-12 17:02:00,
2013-05-12 13:12:00,48.0,34.0,30.05,WNW,286,10.0,18.0,57,0.00,,,0.05,,2013-05-12 17:12:00,
2013-05-12 13:22:00,48.0,33.0,30.04,West,280,9.0,17.0,55,0.00,,,0.05,,2013-05-12 17:22:00,
2013-05-12 13:32:00,50.0,32.0,30.05,West,263,9.0,17.0,50,0.00,,,0.05,,2013-05-12 17:32:00,
2013-05-12 13:42:00,50.0,32.0,30.05,West,263,9.0,17.0,50,0.00,,,0.05,,2013-05-12 17:42:00,
2013-05-12 13:53:00,50.0,32.0,30.05,West,278,9.0,19.0,50,0.00,,,0.05,,2013-05-12 17:53:00,
2013-05-12 14:01:00,50.0,32.0,30.05,West,281,9.0,20.0,49,0.00,,,0.05,,2013-05-12 18:01:00,
2013-05-12 14:12:00,50.0,32.0,30.05,West,281,9.0,20.0,49,0.00,,,0.05,,2013-05-12 18:12:00,
2013-05-12 14:22:00,50.0,32.0,30.05,WNW,300,7.0,16.0,49,0.00,,,0.05,,2013-05-12 18:22:00,
2013-05-12 14:32:00,50.0,31.0,30.06,West,272,9.0,18.0,48,0.00,,,0.05,,2013-05-12 18:32:00,
2013-05-12 14:42:00,50.0,31.0,30.06,West,272,9.0,18.0,48,0.00,,,0.05,,2013-05-12 18:42:00,
2013-05-12 14:52:00,51.0,30.0,30.05,WNW,291,11.0,19.0,45,0.00,,,0.05,,2013-05-12 18:52:00,
2013-05-12 15:01:00,52.0,31.0,30.05,WNW,293,11.0,20.0,44,0.00,,,0.05,,2013-05-12 19:01:00,
2013-05-12 15:11:00,52.0,31.0,30.05,WNW,293,11.0,20.0,44,0.00,,,0.05,,2013-05-12 19:11:00,
2013-05-12 15:22:00,52.0,31.0,30.05,WNW,288,12.0,20.0,44,0.00,,,0.05,,2013-05-12 19:22:00,
2013-05-12 15:32:00,51.0,29.0,30.05,West,275,12.0,21.0,43,0.00,,,0.05,,2013-05-12 19:32:00,
2013-05-12 15:42:00,51.0,29.0,30.05,West,275,12.0,21.0,43,0.00,,,0.05,,2013-05-12 19:42:00,
2013-05-12 15:52:00,52.0,32.0,30.06,WNW,289,10.0,20.0,46,0.00,,,0.05,,2013-05-12 19:52:00,
2013-05-12 16:02:00,51.0,30.0,30.06,WNW,291,10.0,18.0,45,0.00,,,0.05,,2013-05-12 20:02:00,
2013-05-12 16:11:00,51.0,30.0,30.06,WNW,291,10.0,18.0,45,0.00,,,0.05,,2013-05-12 20:11:00,
2013-05-12 16:22:00,50.0,29.0,30.06,WNW,299,13.0,18.0,45,0.00,,,0.05,,2013-05-12 20:22:00,
2013-05-12 16:32:00,51.0,31.0,30.06,WNW,289,9.0,20.0,46,0.00,,,0.05,,2013-05-12 20:32:00,
2013-05-12 16:42:00,51.0,31.0,30.06,WNW,289,9.0,20.0,46,0.00,,,0.05,,2013-05-12 20:42:00,
2013-05-12 16:52:00,52.0,30.0,30.06,WNW,301,10.0,18.0,42,0.00,,,0.05,,2013-05-12 20:52:00,
2013-05-12 17:01:00,51.0,30.0,30.06,WNW,301,12.0,21.0,44,0.00,,,0.05,,2013-05-12 21:01:00,
2013-05-12 17:11:00,51.0,30.0,30.06,WNW,301,12.0,21.0,44,0.00,,,0.05,,2013-05-12 21:11:00,
2013-05-12 17:21:00,51.0,30.0,30.07,WNW,295,11.0,19.0,45,0.00,,,0.05,,2013-05-12 21:21:00,
2013-05-12 17:33:00,52.0,30.0,30.07,West,273,11.0,15.0,43,0.00,,,0.05,,2013-05-12 21:33:00,
2013-05-12 17:42:00,52.0,30.0,30.07,West,273,11.0,15.0,43,0.00,,,0.05,,2013-05-12 21:42:00,
2013-05-12 17:53:00,50.0,31.0,30.07,West,277,8.0,19.0,47,0.00,,,0.05,,2013-05-12 21:53:00,
2013-05-12 18:02:00,50.0,29.0,30.06,NW,317,8.0,16.0,45,0.00,,,0.05,,2013-05-12 22:02:00,
2013-05-12 18:12:00,50.0,29.0,30.06,NW,317,8.0,16.0,45,0.00,,,0.05,,2013-05-12 22:12:00,
2013-05-12 18:23:00,50.0,29.0,30.07,West,269,8.0,15.0,45,0.00,,,0.05,,2013-05-12 22:23:00,
2013-05-12 18:33:00,49.0,28.0,30.07,WNW,290,11.0,19.0,44,0.00,,,0.05,,2013-05-12 22:33:00,
2013-05-12 18:42:00,49.0,28.0,30.07,WNW,290,11.0,19.0,44,0.00,,,0.05,,2013-05-12 22:42:00,
2013-05-12 18:52:00,50.0,28.0,30.06,WNW,298,12.0,18.0,43,0.00,,,0.05,,2013-05-12 22:52:00,
2013-05-12 19:02:00,49.0,29.0,30.06,WNW,300,9.0,18.0,45,0.00,,,0.01,,2013-05-12 23:02:00,
2013-05-12 19:12:00,49.0,29.0,30.06,WNW,300,9.0,18.0,45,0.00,,,0.01,,2013-05-12 23:12:00,
2013-05-12 19:22:00,49.0,29.0,30.06,WNW,298,7.0,16.0,45,0.00,,,0.01,,2013-05-12 23:22:00,
2013-05-12 19:32:00,49.0,28.0,30.06,West,268,10.0,15.0,44,0.00,,,0.01,,2013-05-12 23:32:00,
2013-05-12 19:42:00,49.0,28.0,30.06,West,268,10.0,15.0,44,0.00,,,0.01,,2013-05-12 23:42:00,
2013-05-12 19:52:00,49.0,29.0,30.07,NW,304,8.0,15.0,45,0.00,,,0.01,,2013-05-12 23:52:00,
2013-05-12 20:01:00,49.0,28.0,30.06,NW,321,9.0,14.0,44,0.00,,,0.00,,2013-05-13 00:01:00,
2013-05-12 20:11:00,49.0,28.0,30.06,NW,321,9.0,14.0,44,0.00,,,0.00,,2013-05-13 00:11:00,
2013-05-12 20:22:00,49.0,29.0,30.07,West,265,7.0,13.0,46,0.00,,,0.00,,2013-05-13 00:22:00,
2013-05-12 20:32:00,48.0,29.0,30.07,WNW,286,7.0,10.0,48,0.00,,,0.00,,2013-05-13 00:32:00,
2013-05-12 20:42:00,48.0,29.0,30.07,WNW,286,7.0,10.0,48,0.00,,,0.00,,2013-05-13 00:42:00,
2013-05-12 20:52:00,47.0,29.0,30.07,West,281,4.0,8.0,50,0.00,,,0.00,,2013-05-13 00:52:00,
2013-05-12 21:01:00,46.0,30.0,30.07,WNW,296,2.0,7.0,53,0.00,,,0.00,,2013-05-13 01:01:00,
2013-05-12 21:11:00,46.0,30.0,30.07,WNW,296,2.0,7.0,53,0.00,,,0.00,,2013-05-13 01:11:00,
2013-05-12 21:22:00,45.0,30.0,30.07,West,273,2.0,7.0,56,0.00,,,0.00,,2013-05-13 01:22:00,
2013-05-12 21:32:00,44.0,30.0,30.08,West,278,1.0,4.0,57,0.00,,,0.00,,2013-05-13 01:32:00,
2013-05-12 21:42:00,44.0,30.0,30.08,West,278,1.0,4.0,57,0.00,,,0.00,,2013-05-13 01:42:00,
2013-05-12 21:52:00,44.0,30.0,30.09,WNW,296,1.0,4.0,57,0.00,,,0.00,,2013-05-13 01:52:00,
2013-05-12 22:02:00,43.0,29.0,30.10,WNW,285,0.0,2.0,58,0.00,,,0.00,,2013-05-13 02:02:00,
2013-05-12 22:11:00,43.0,29.0,30.10,WNW,285,0.0,2.0,58,0.00,,,0.00,,2013-05-13 02:11:00,
2013-05-12 22:21:00,43.0,30.0,30.10,WNW,285,0.0,2.0,59,0.00,,,0.00,,2013-05-13 02:21:00,
2013-05-12 22:32:00,43.0,30.0,30.11,WNW,285,0.0,2.0,59,0.00,,,0.00,,2013-05-13 02:32:00,
2013-05-12 22:42:00,43.0,30.0,30.11,WNW,285,0.0,2.0,59,0.00,,,0.00,,2013-05-13 02:42:00,
2013-05-12 22:52:00,42.0,30.0,30.12,WNW,285,0.0,1.0,61,0.00,,,0.00,,2013-05-13 02:52:00,
2013-05-12 23:02:00,41.0,29.0,30.12,WNW,285,0.0,2.0,62,0.00,,,0.00,,2013-05-13 03:02:00,
2013-05-12 23:11:00,41.0,29.0,30.12,WNW,285,0.0,2.0,62,0.00,,,0.00,,2013-05-13 03:11:00,
2013-05-12 23:21:00,41.0,29.0,30.12,WNW,285,1.0,3.0,62,0.00,,,0.00,,2013-05-13 03:21:00,
2013-05-12 23:32:00,41.0,29.0,30.12,WNW,285,1.0,3.0,62,0.00,,,0.00,,2013-05-13 03:32:00,
2013-05-12 23:42:00,41.0,29.0,30.12,WNW,285,1.0,3.0,62,0.00,,,0.00,,2013-05-13 03:42:00,
2013-05-12 23:52:00,41.0,29.0,30.12,WNW,285,0.0,2.0,63,0.00,,,0.00,,2013-05-13 03:52:00,